{"data":{"norad_id":67508,"intl_designator":"2026-012R","name":"STARLINK-36526","alt_names":[],"object_type":"PAYLOAD","status":"ACTIVE","operator":null,"country":"US","launch_date":"2026-01-18","launch_site_code":"AFETR","launch_vehicle":null,"mission":null,"orbit_class":"UNKNOWN","rcs_meters":null,"size_class":null,"mass_kg":null,"dimensions":null,"purposes":["comms"],"wikipedia_slug":null,"has_3d_model":false,"image_url":null,"decayed_at":null,"tle_current":{"epoch":"2026-09-19T19:12:10.545984Z","epoch_age_seconds":132688,"freshness":"FRESH","line1":"1 67508U 26012R   26262.80012206  .00015189  00000+0  56024-3 0  9997","line2":"2 67508  43.0018 297.7170 0001551 274.8843  85.1831 15.27586107 37452","mean_motion":15.27586107,"eccentricity":0.0001551,"inclination_deg":43.0018,"raan_deg":297.717,"arg_perigee_deg":274.8843,"mean_anomaly_deg":85.1831,"bstar":0.00056024,"rev_number":3745,"period_min":94.26637185304,"perigee_km":481.96664241833,"apogee_km":484.09497667285,"semimajor_km":6861.1678095456,"source":"CELESTRAK","updated_at":"2026-09-20T09:00:43.560567Z"}}}